[[{"header":{"parameterUnit":"m.s-1","parameterCategory":1,"la1":30.2991,"la2":30.254,"lo1":-89.0895,"lo2":-89.0444,"dy":0.0017,"dx":0.0017,"nx":28,"ny":28,"refTime":"2025-07-21T09:00:00:Z","depth":0,"parameterNumber":2,"parameterNumberName":"U-component_of_WINDS"},"data":[0,0,0,0,0,0,0,0,0,0,0,0,0,0,0,0,0,0,0,0,0,0,0,0,0,0,0,0,0,0,0,0,0,0,0,0,0,0,0,0,0,0,0,0,0,0,0,0,0,0,0,0,0,0,0,0,0,0,3.0629,3.063,0,3.0779,3.078,3.0782,3.0737,3.0734,3.073,3.0727,3.089,3.0897,3.0905,0,0,0,0,0,0,0,0,0,0,0,0,0,3.0312,3.0318,3.0628,3.063,3.0632,3.0778,3.078,3.0783,3.0737,3.0733,3.073,3.0726,3.0888,3.0896,3.0905,0,0,0,0,0,0,0,0,0,0,0,0,0,3.0455,3.032,3.0628,3.0627,3.0628,3.0778,3.0781,3.0783,3.0738,3.0733,3.0729,3.0724,3.0885,3.0896,3.0906,3.1069,0,0,3.094,3.0945,0,0,0,0,0,0,0,0,3.0447,3.0467,3.0625,3.0627,3.0629,3.0734,3.0729,3.0879,3.0739,3.0697,3.0727,3.0722,3.0843,3.0857,3.0896,3.1077,3.1083,3.0941,3.0947,3.0952,3.0955,0,0,0,0,0,0,0,3.0437,3.046,3.0688,3.0628,3.063,3.0622,3.0637,3.0757,3.0795,3.07,3.0697,3.0715,3.0843,3.0885,3.0899,3.1086,3.094,3.095,3.0957,3.0961,3.1411,3.1416,0,0,0,0,0,0,3.0424,3.0452,3.0683,3.0693,3.0524,3.0632,3.0648,3.0705,3.0793,3.0802,3.0719,3.0712,3.0869,3.0886,3.0905,3.1103,3.0952,3.0962,3.0969,3.1405,3.1412,3.1418,0,0,0,0,0,0,3.0418,3.0445,3.0677,3.0572,3.06,3.0642,3.0706,3.0711,3.0753,3.0807,3.0815,3.0755,3.0866,3.0889,3.1028,3.1108,3.0967,3.0977,3.1399,3.1407,3.1415,3.1499,0,0,0,0,0,0,3.0409,3.0443,3.0503,3.0573,3.0606,3.0796,3.0711,3.0717,3.0771,3.0764,3.0843,3.0852,3.0864,3.1012,3.1039,3.112,3.0986,3.1392,3.1403,3.1412,3.1489,3.1509,3.1525,0,0,0,0,0,3.0398,3.0522,3.0506,3.0535,3.0681,3.08,3.082,3.0829,3.0777,3.084,3.0875,3.0849,3.1094,3.1027,3.1057,3.1142,3.1387,3.14,3.1412,3.1481,3.1505,3.1525,0,0,0,0,0,0,3.0463,3.0531,3.0515,3.0665,3.0727,3.0792,3.0871,3.0853,3.0934,3.0924,3.0934,3.0953,3.1096,3.1133,3.1057,3.1306,3.1234,3.1252,3.1276,3.1299,3.1317,3.1306,3.0995,0,0,0,0,0,3.0494,3.0583,3.0638,3.0766,3.0797,3.0829,3.0881,3.0883,3.0949,3.0976,3.1021,3.1089,3.1181,3.1242,3.133,3.1494,3.1512,3.1568,3.1586,3.16,3.1617,3.1709,3.1735,3.1458,3.1458,3.1457,0,0,3.0561,3.0609,3.0665,3.078,3.0828,3.0923,3.0852,3.0954,3.1025,3.0992,3.1126,3.1162,3.1238,3.1391,3.1461,3.1426,3.1698,3.1616,3.1627,3.1636,3.1724,3.1751,3.1774,3.1466,3.1464,3.1463,0,0,3.0731,3.0775,3.0887,3.0937,3.101,3.103,3.1057,3.1126,3.1148,3.1281,3.126,3.1346,3.1504,3.156,3.1609,3.1802,3.1783,3.1831,3.1926,3.2016,3.2038,3.2057,3.2128,3.2154,3.1847,3.1847,3.1847,0,3.0806,3.0944,3.0948,3.1052,3.1105,3.1077,3.1192,3.1241,3.1341,3.138,3.1339,3.1538,3.1587,3.1754,3.1801,3.1841,3.1875,3.1822,3.2034,3.2053,3.2072,3.214,3.2166,3.1852,3.1852,3.1851,3.1851,0,3.1033,3.113,3.1212,3.1306,3.1368,3.1478,3.1501,3.1564,3.1561,3.1586,3.1725,3.1783,3.1883,3.1922,3.1921,3.209,3.2067,3.203,3.1958,3.2104,3.2168,3.2194,3.186,3.1858,3.1857,3.1855,0,0,3.1249,3.1344,3.1374,3.1418,3.1497,3.1574,3.1683,3.1778,3.1834,3.1904,3.1998,3.2133,3.21,3.2156,3.216,3.2239,3.2391,3.2193,3.2195,3.2229,3.2584,3.2612,3.2642,3.2377,3.2382,3.2386,3.2578,0,3.1428,3.1617,3.1624,3.1799,3.189,3.1865,3.1962,3.2023,3.205,3.2134,3.2165,3.2261,3.2208,3.2242,3.2319,3.2356,3.2463,3.2342,3.2469,3.2473,3.2452,3.2675,3.2705,3.2883,3.2603,3.2607,3.261,0,3.1661,3.1736,3.1919,3.1987,3.2025,3.2111,3.22,3.2279,3.2349,3.2364,3.2427,3.242,3.2536,3.2459,3.2621,3.2539,3.2591,3.2618,3.2625,3.2639,3.2552,3.2697,3.294,3.2968,3.265,3.2646,3.2644,0,3.1803,3.195,3.2079,3.2117,3.2198,3.226,3.2297,3.2362,3.242,3.2498,3.2537,3.2629,3.268,3.2753,3.2773,3.2715,3.2936,3.286,3.2954,3.2954,3.3003,3.3,3.326,3.3034,3.3033,3.3033,3.3032,0,3.2002,3.2116,3.2144,3.2223,3.2351,3.236,3.2487,3.2521,3.2579,3.2667,3.2652,3.2736,3.2756,3.2845,3.2861,3.2994,3.3017,3.3035,3.3038,3.3037,3.3035,3.3073,3.3062,3.304,3.3038,3.3037,3.3036,0,3.2183,3.2205,3.2345,3.2411,3.243,3.2521,3.2579,3.2658,3.2682,3.2795,3.2822,3.2863,3.2966,3.2993,3.3117,3.3129,3.3286,3.3277,3.3262,3.3262,3.3356,3.3347,3.365,3.3692,3.3437,3.3439,3.3441,0,3.2309,3.2396,3.2471,3.2527,3.2567,3.2659,3.2717,3.273,3.2791,3.2878,3.2947,3.3048,3.313,3.3298,3.334,3.3436,3.3431,3.353,3.3445,3.3442,3.3435,3.343,3.344,3.3547,3.355,3.3552,3.3554,0,3.2532,3.254,3.2622,3.271,3.278,3.285,3.2918,3.2966,3.2988,3.3059,3.3164,3.3227,3.3353,3.3456,3.3552,3.3594,3.358,3.358,3.3607,3.3608,3.3596,3.3606,3.3308,3.3574,3.3572,3.357,3.3569,3.3568,3.2691,3.2768,3.2833,3.2926,3.2978,3.3042,3.3119,3.3153,3.3239,3.3341,3.3345,3.3459,3.353,3.3657,3.3705,3.3797,3.3767,3.3806,3.3816,3.3826,3.3835,3.358,3.3814,3.3814,3.3813,3.3813,3.3813,0,3.2915,3.2956,3.3042,3.3136,3.321,3.3186,3.326,3.3325,3.3425,3.3491,3.3571,3.3693,3.3792,3.3842,3.3941,3.4006,3.4002,3.4031,3.4028,3.4038,3.3855,3.3822,3.4033,3.4033,3.4033,3.4033,3.4033,3.4033,3.3041,3.3169,3.3185,3.334,3.3381,3.3491,3.3535,3.3595,3.3647,3.3783,3.3864,3.3895,3.3956,3.406,3.4151,3.4163,3.4202,3.4236,3.4245,3.4073,3.4051,3.403,3.3999,3.4243,3.4244,3.4421,3.4422,3.4424]},{"header":{"parameterUnit":"m.s-1","parameterCategory":1,"la1":30.2991,"la2":30.254,"lo1":-89.0895,"lo2":-89.0444,"dy":0.0017,"dx":0.0017,"nx":28,"ny":28,"refTime":"2025-07-21T09:00:00:Z","depth":0,"parameterNumber":3,"parameterNumberName":"V-component_of_WINDS"},"data":[0,0,0,0,0,0,0,0,0,0,0,0,0,0,0,0,0,0,0,0,0,0,0,0,0,0,0,0,0,0,0,0,0,0,0,0,0,0,0,0,0,0,0,0,0,0,0,0,0,0,0,0,0,0,0,0,0,0,2.4286,2.4287,0,2.4395,2.4397,2.4398,2.4375,2.4373,2.4371,2.4369,2.448,2.4484,2.4489,0,0,0,0,0,0,0,0,0,0,0,0,0,2.4052,2.4057,2.4286,2.4287,2.4289,2.4395,2.4397,2.4398,2.4376,2.4373,2.4371,2.4369,2.4478,2.4484,2.449,0,0,0,0,0,0,0,0,0,0,0,0,0,2.4157,2.4058,2.4286,2.429,2.4292,2.4395,2.4397,2.4399,2.4376,2.4373,2.437,2.4367,2.4476,2.4483,2.449,2.4595,0,0,2.4512,2.4516,0,0,0,0,0,0,0,0,2.4151,2.4166,2.4288,2.429,2.4292,2.4369,2.4355,2.4464,2.4377,2.4344,2.4369,2.4366,2.4445,2.4455,2.4482,2.46,2.4605,2.4513,2.4517,2.4521,2.4523,0,0,0,0,0,0,0,2.4144,2.4161,2.4329,2.429,2.4292,2.4285,2.4297,2.4375,2.441,2.4347,2.4345,2.4359,2.4446,2.4475,2.4484,2.4607,2.4513,2.4519,2.4524,2.4527,2.4809,2.4812,0,0,0,0,0,0,2.4135,2.4155,2.4326,2.4332,2.4213,2.4292,2.4305,2.4347,2.4409,2.4416,2.4361,2.4357,2.4464,2.4476,2.4488,2.461,2.452,2.4527,2.4531,2.4806,2.481,2.4814,0,0,0,0,0,0,2.4131,2.4151,2.4321,2.4243,2.4264,2.4299,2.4347,2.4351,2.438,2.442,2.4426,2.4385,2.4462,2.4478,2.4567,2.4614,2.453,2.4537,2.4803,2.4807,2.4812,2.4858,0,0,0,0,0,0,2.4124,2.4149,2.4191,2.4244,2.4269,2.4401,2.435,2.4355,2.4393,2.4389,2.4444,2.445,2.4461,2.4557,2.4574,2.4622,2.4543,2.4798,2.4805,2.481,2.4852,2.4864,2.4873,0,0,0,0,0,2.4116,2.4201,2.4193,2.4214,2.4322,2.4404,2.4417,2.4428,2.4397,2.4437,2.4462,2.4449,2.4606,2.4566,2.4586,2.4636,2.4796,2.4803,2.481,2.4847,2.4861,2.4873,0,0,0,0,0,0,2.4153,2.4208,2.42,2.4306,2.435,2.44,2.4452,2.4443,2.4497,2.4491,2.4502,2.4514,2.4604,2.463,2.4584,2.4737,2.4696,2.4707,2.4718,2.4731,2.4741,2.4732,2.4549,0,0,0,0,0,2.4173,2.4236,2.4281,2.4369,2.4391,2.4418,2.4454,2.4458,2.4504,2.4523,2.4554,2.4598,2.4657,2.4696,2.4753,2.4856,2.4865,2.49,2.491,2.4919,2.4928,2.4979,2.4993,2.4837,2.4837,2.4837,0,0,2.4216,2.4254,2.4293,2.4377,2.4412,2.4474,2.4434,2.4503,2.4548,2.4533,2.4618,2.4642,2.4692,2.4787,2.4831,2.4811,2.4973,2.4928,2.4934,2.4939,2.4987,2.5002,2.5015,2.4842,2.4841,2.484,0,0,2.4325,2.4362,2.4437,2.4472,2.4524,2.454,2.4558,2.4608,2.4623,2.4709,2.4697,2.4751,2.4854,2.4888,2.4918,2.5035,2.5022,2.5053,2.5107,2.5156,2.5169,2.5179,2.5216,2.523,2.5062,2.5063,2.5063,0,2.4372,2.4466,2.4477,2.4545,2.458,2.4568,2.4642,2.4675,2.4744,2.4767,2.4744,2.4869,2.4902,2.5002,2.503,2.5057,2.5074,2.5046,2.5166,2.5177,2.5187,2.5223,2.5237,2.5066,2.5065,2.5065,2.5065,0,2.4518,2.4583,2.4637,2.4702,2.4743,2.4815,2.4833,2.4873,2.4873,2.489,2.4974,2.5013,2.5075,2.5099,2.5101,2.5198,2.5184,2.5164,2.5122,2.5205,2.5238,2.5252,2.507,2.5069,2.5068,2.5067,0,0,2.4655,2.4721,2.4741,2.4767,2.4822,2.4872,2.494,2.5,2.5032,2.5079,2.5134,2.5219,2.5199,2.5234,2.5238,2.5282,2.5365,2.5255,2.5257,2.5271,2.5469,2.5482,2.5498,2.5358,2.536,2.5363,2.5463,0,2.4766,2.4887,2.4896,2.5004,2.5062,2.5049,2.5108,2.5146,2.5164,2.5214,2.5232,2.529,2.5262,2.5282,2.5325,2.5346,2.5404,2.5339,2.5406,2.5408,2.5391,2.5516,2.5531,2.5624,2.5477,2.5479,2.5481,0,2.4913,2.4961,2.5075,2.5116,2.5141,2.5194,2.5246,2.5295,2.5337,2.5346,2.5383,2.538,2.5446,2.5403,2.5492,2.5447,2.5475,2.5489,2.5492,2.5497,2.5448,2.552,2.5655,2.5667,2.5502,2.5501,2.5499,0,2.4995,2.509,2.5168,2.5192,2.5244,2.5281,2.5304,2.5343,2.5376,2.5422,2.5443,2.5496,2.5525,2.5564,2.5574,2.5543,2.5662,2.5621,2.5668,2.5668,2.5693,2.569,2.583,2.5716,2.5715,2.5715,2.5715,0,2.5116,2.5185,2.5205,2.5254,2.5329,2.5337,2.5411,2.5431,2.5465,2.5514,2.5508,2.5554,2.5566,2.5614,2.5622,2.5692,2.5706,2.5712,2.5713,2.5711,2.571,2.5728,2.572,2.5719,2.5718,2.5717,2.5717,0,2.5222,2.5238,2.5322,2.5363,2.5375,2.5428,2.5462,2.5507,2.5522,2.5584,2.5599,2.5622,2.5678,2.5692,2.5759,2.5764,2.5845,2.5842,2.5831,2.583,2.5875,2.5869,2.6029,2.6048,2.5924,2.5925,2.5926,0,2.5296,2.5349,2.5394,2.5426,2.5451,2.5504,2.5537,2.5546,2.5581,2.5629,2.5667,2.5721,2.5765,2.5853,2.5875,2.5924,2.5919,2.5972,2.5927,2.5921,2.5915,2.5911,2.5914,2.5979,2.5981,2.5982,2.5983,0,2.5426,2.543,2.5479,2.5529,2.5569,2.5609,2.5648,2.5674,2.5688,2.5726,2.5782,2.5816,2.5882,2.5935,2.5984,2.6005,2.5995,2.5997,2.601,2.6007,2.5997,2.5999,2.585,2.5993,2.5992,2.5991,2.5991,2.599,2.5515,2.5559,2.5596,2.5649,2.5678,2.5713,2.5755,2.5774,2.5821,2.5876,2.5878,2.5937,2.5973,2.6037,2.6061,2.6106,2.609,2.611,2.6114,2.6118,2.612,2.5992,2.6115,2.6115,2.6115,2.6115,2.6114,0,2.564,2.5663,2.5711,2.5764,2.5804,2.5792,2.5832,2.5866,2.5919,2.5953,2.5995,2.6057,2.6106,2.613,2.6179,2.621,2.6206,2.6222,2.6218,2.6222,2.6134,2.6116,2.6223,2.6223,2.6223,2.6223,2.6223,2.6223,2.571,2.5781,2.579,2.5874,2.5896,2.5954,2.5977,2.6008,2.6034,2.6103,2.6144,2.616,2.6188,2.6238,2.6281,2.6287,2.6303,2.6321,2.6323,2.624,2.6229,2.6218,2.6201,2.6325,2.6325,2.6407,2.6408,2.6409]}]]